Domov               UVHVVR             MKGP            O straneh              
ZDRAVSTVENO VARSTVO RASTLIN
  MREŽA AGROMET. POSTAJ
 ► PROGNOSTIČNA OBVESTILA
AGROMETEOROLOŠKI PODATKI -
ARSO
OBVLADOVANJE TVEGANJ ZARADI
NEUGODNIH VREMENSKIH RAZMER
  ► NARAVNE NESREČE
  ► SUŠA/MOČA
  ► NAMAKANJE
  ► ŽLED (gozdarstvo)
KARTOGRAFSKI PRIKAZI
SPLETNE POVEZAVE
PROJEKTI IN PUBLIKACIJE

AGROMETEOROLOŠKA MREŽA: VREMENSKE POSTAJE IN FENOLOŠKA OPAZOVANJA

Pregled podatkov za lokacijo Šentilj, meteorološka postaja 24379

Pregled senzorjev na lokaciji

ID Ime Zadnja
vrednost
Datum
zadnje
spremembe
Tip
senzorja
904 Omočenost lista (U) 0 U 18.10.2017 18:00 A730WET
905 Temperatura 2 m ( °C) 20,29 °C 18.10.2017 18:00 Generic -40 - +60 °C
906 Relativna vlaga 2 m (% RH) 43,49 % RH 18.10.2017 18:00 Generic 0 - 100 %
3858 Padavine 0.2 mm (mm) 0 mm 18.10.2017 18:00 Generic 0.2 mm

Pregled podatkov zadnjih 24 ur

Zap.
št.
Datum in čas Šentilj
Omočenost
lista
Padavine
0.2
mm
Relativna
vlaga
2
m
Temperatura
2
m
0 18.10.2017 17:00 0 0 43,49 20,29
1 18.10.2017 16:30 0 0 37,9 22,69
2 18.10.2017 16:00 0 0 41,61 24,15
3 18.10.2017 15:30 0 0 42,78 24,32
4 18.10.2017 15:00 0 0 42,71 24,05
5 18.10.2017 14:30 0 0 40,1 23,96
6 18.10.2017 14:00 0 0 48,62 23,25
7 18.10.2017 13:30 0 0 55,9 22,52
8 18.10.2017 13:00 0 0 49,99 22,49
9 18.10.2017 12:30 0 0 49,74 21,47
10 18.10.2017 12:00 0 0 66,47 19,98
11 18.10.2017 11:30 0 0 68,77 19,44
12 18.10.2017 11:00 0 0 73,36 17,83
13 18.10.2017 10:30 9 0 76,87 16,48
14 18.10.2017 10:00 10 0 83,96 14,65
15 18.10.2017 09:30 10 0 89,04 13,06
16 18.10.2017 09:00 10 0 96,26 12,26
17 18.10.2017 08:30 10 0 99,88 10,74
18 18.10.2017 08:00 10 0 99,9 9,45
19 18.10.2017 07:30 10 0 99,93 8,55
20 18.10.2017 07:00 10 0 99,88 8,38
21 18.10.2017 06:30 10 0 99,76 8,35
22 18.10.2017 06:00 10 0 99,8 9,18
23 18.10.2017 05:30 10 0 99,63 9,5
24 18.10.2017 05:00 10 0 99,71 10,21
25 18.10.2017 04:30 10 0 99,66 10,84
26 18.10.2017 04:00 10 0 99,56 10,94
27 18.10.2017 03:30 10 0 99,37 11,21
28 18.10.2017 03:00 10 0 99,51 11,62
29 18.10.2017 02:30 10 0 99,54 11,79
30 18.10.2017 02:00 10 0 99,34 11,7
31 18.10.2017 01:30 10 0 99,07 11,94
32 18.10.2017 01:00 10 0 98,83 12,11
33 18.10.2017 00:30 10 0 98 12,04
34 18.10.2017 00:00 10 0 96,83 12,58
35 17.10.2017 23:30 10 0 96,58 12,94
36 17.10.2017 23:00 10 0 96,78 12,89
37 17.10.2017 22:30 10 0 95,7 13,11
38 17.10.2017 22:00 10 0 94,33 13,48
39 17.10.2017 21:30 8 0 92,89 13,72
40 17.10.2017 21:00 3 0 89,74 14,24
41 17.10.2017 20:30 1 0 87,01 14,8
42 17.10.2017 20:00 0 0 83,15 15,48
43 17.10.2017 19:30 0 0 78,05 16,46
44 17.10.2017 19:00 0 0 73,43 17,34
45 17.10.2017 18:30 0 0 72,53 17,51
© 2011 Ministrstvo za kmetijstvo, gozdarstvo in prehrano. Vse pravice pridržane.